TimeCDT,TemperatureF,Dew PointF,Humidity,Sea Level PressureIn,VisibilityMPH,Wind Direction,Wind SpeedMPH,Gust SpeedMPH,PrecipitationIn,Events,Conditions,WindDirDegrees,DateUTC
12:16 AM,77.0,62.6,61,29.93,10.0,SSE,10.4,16.1,N/A,,Scattered Clouds,160,2013-06-21 05:16:00
12:36 AM,78.8,62.6,57,29.94,10.0,SSE,8.1,-,N/A,,Scattered Clouds,160,2013-06-21 05:36:00
12:56 AM,77.0,62.6,61,29.93,10.0,South,9.2,-,N/A,,Overcast,170,2013-06-21 05:56:00
1:16 AM,78.8,62.6,57,29.93,10.0,South,8.1,-,N/A,,Overcast,170,2013-06-21 06:16:00
1:36 AM,77.0,62.6,61,29.93,10.0,SSE,6.9,-,N/A,,Overcast,160,2013-06-21 06:36:00
1:56 AM,77.0,62.6,61,29.90,10.0,SSE,9.2,-,N/A,,Overcast,160,2013-06-21 06:56:00
2:16 AM,77.0,62.6,61,29.88,10.0,South,10.4,-,N/A,,Overcast,170,2013-06-21 07:16:00
2:36 AM,78.8,62.6,57,29.87,10.0,South,13.8,19.6,N/A,,Mostly Cloudy,170,2013-06-21 07:36:00
2:56 AM,77.0,62.6,61,29.89,10.0,South,17.3,21.9,N/A,,Mostly Cloudy,180,2013-06-21 07:56:00
3:16 AM,77.0,64.4,65,29.88,10.0,South,12.7,24.2,N/A,,Mostly Cloudy,180,2013-06-21 08:16:00
3:36 AM,77.0,64.4,65,29.87,10.0,South,17.3,23.0,N/A,,Scattered Clouds,190,2013-06-21 08:36:00
3:56 AM,77.0,64.4,65,29.87,10.0,South,15.0,23.0,N/A,Thunderstorm,Clear,190,2013-06-21 08:56:00
4:16 AM,75.2,64.4,69,29.87,10.0,South,11.5,17.3,N/A,,Scattered Clouds,180,2013-06-21 09:16:00
4:36 AM,75.2,64.4,69,29.87,10.0,South,12.7,-,N/A,Thunderstorm,Mostly Cloudy,180,2013-06-21 09:36:00
4:55 AM,75.2,64.4,69,29.87,10.0,South,15.0,-,N/A,Thunderstorm,Thunderstorm,190,2013-06-21 09:55:00
5:16 AM,75.2,64.4,69,29.85,10.0,South,12.7,16.1,N/A,Thunderstorm,Thunderstorm,180,2013-06-21 10:16:00
5:36 AM,75.2,66.2,73,29.88,10.0,South,10.4,17.3,N/A,Thunderstorm,Thunderstorm,190,2013-06-21 10:36:00
5:56 AM,68.0,60.8,78,29.98,7.0,North,16.1,33.4,0.01,Rain-Thunderstorm,Heavy Thunderstorms and Rain,360,2013-06-21 10:56:00
6:16 AM,64.4,60.8,88,29.97,10.0,NE,10.4,19.6,0.09,Rain-Thunderstorm,Heavy Thunderstorms and Rain,40,2013-06-21 11:16:00
6:36 AM,64.4,60.8,88,29.96,10.0,ENE,8.1,-,0.17,Rain-Thunderstorm,Heavy Thunderstorms and Rain,70,2013-06-21 11:36:00
6:56 AM,64.4,60.8,88,29.93,10.0,NNE,4.6,-,N/A,Rain-Thunderstorm,Thunderstorms and Rain,30,2013-06-21 11:56:00
7:16 AM,64.4,60.8,88,29.91,10.0,SE,3.5,-,0.01,Rain-Thunderstorm,Light Thunderstorms and Rain,130,2013-06-21 12:16:00
7:36 AM,64.4,62.6,94,29.92,10.0,South,9.2,-,0.02,Rain-Thunderstorm,Light Thunderstorms and Rain,170,2013-06-21 12:36:00
7:56 AM,64.4,62.6,94,29.90,10.0,SSE,10.4,-,N/A,Rain-Thunderstorm,Light Thunderstorms and Rain,150,2013-06-21 12:56:00
8:16 AM,64.4,60.8,88,29.90,10.0,South,6.9,-,N/A,Rain-Thunderstorm,Light Thunderstorms and Rain,170,2013-06-21 13:16:00
8:36 AM,64.4,62.6,94,29.93,10.0,SSW,13.8,-,N/A,Thunderstorm,Thunderstorm,200,2013-06-21 13:36:00
8:56 AM,64.4,62.6,94,29.93,10.0,South,16.1,21.9,N/A,Rain-Thunderstorm,Light Thunderstorms and Rain,180,2013-06-21 13:56:00
9:16 AM,64.4,62.6,94,29.92,10.0,South,17.3,-,N/A,Rain-Thunderstorm,Light Thunderstorms and Rain,190,2013-06-21 14:16:00
9:36 AM,64.4,62.6,94,29.94,10.0,South,13.8,18.4,N/A,Thunderstorm,Thunderstorm,190,2013-06-21 14:36:00
9:56 AM,64.4,62.6,94,29.95,10.0,South,18.4,24.2,N/A,,Scattered Clouds,180,2013-06-21 14:56:00
10:16 AM,66.2,60.8,83,29.95,10.0,South,13.8,17.3,N/A,,Scattered Clouds,180,2013-06-21 15:16:00
10:36 AM,66.2,62.6,88,29.94,10.0,South,10.4,24.2,N/A,,Clear,170,2013-06-21 15:36:00
10:56 AM,66.2,62.6,88,29.94,10.0,South,15.0,23.0,N/A,,Clear,190,2013-06-21 15:56:00
11:16 AM,66.2,62.6,88,29.96,10.0,South,19.6,27.6,N/A,,Clear,190,2013-06-21 16:16:00
11:36 AM,69.8,62.6,78,29.95,10.0,South,18.4,25.3,N/A,,Clear,180,2013-06-21 16:36:00
11:55 AM,71.6,62.6,73,29.95,10.0,South,15.0,26.5,N/A,,Clear,170,2013-06-21 16:55:00
12:16 PM,71.6,62.6,73,29.93,10.0,South,17.3,23.0,N/A,,Clear,180,2013-06-21 17:16:00
12:36 PM,73.4,62.6,69,29.94,10.0,South,16.1,26.5,N/A,,Clear,180,2013-06-21 17:36:00
12:56 PM,73.4,64.4,73,29.94,10.0,South,17.3,25.3,N/A,,Clear,180,2013-06-21 17:56:00
1:16 PM,73.4,64.4,73,29.94,10.0,South,20.7,31.1,N/A,,Clear,180,2013-06-21 18:16:00
1:36 PM,75.2,66.2,73,29.95,10.0,South,17.3,24.2,N/A,,Clear,190,2013-06-21 18:36:00
1:56 PM,77.0,64.4,65,29.93,10.0,South,17.3,23.0,N/A,,Clear,190,2013-06-21 18:56:00
2:16 PM,78.8,66.2,65,29.93,10.0,South,16.1,20.7,N/A,,Clear,190,2013-06-21 19:16:00
2:36 PM,80.6,66.2,61,29.93,10.0,SSW,15.0,-,N/A,,Clear,200,2013-06-21 19:36:00
2:56 PM,80.6,66.2,61,29.93,10.0,South,19.6,-,N/A,,Clear,190,2013-06-21 19:56:00
3:16 PM,80.6,68.0,65,29.92,10.0,SSW,16.1,24.2,N/A,,Clear,200,2013-06-21 20:16:00
3:36 PM,80.6,69.8,70,29.90,10.0,South,16.1,-,N/A,,Clear,190,2013-06-21 20:36:00
3:56 PM,80.6,69.8,70,29.89,10.0,South,15.0,24.2,N/A,,Clear,180,2013-06-21 20:56:00
4:16 PM,82.4,69.8,66,29.88,10.0,South,11.5,19.6,N/A,,Clear,180,2013-06-21 21:16:00
4:36 PM,82.4,69.8,66,29.89,10.0,South,10.4,16.1,N/A,,Clear,170,2013-06-21 21:36:00
4:56 PM,84.2,69.8,62,29.90,10.0,SSE,10.4,-,N/A,,Scattered Clouds,160,2013-06-21 21:56:00
5:16 PM,84.2,69.8,62,29.90,10.0,South,9.2,-,N/A,,Scattered Clouds,180,2013-06-21 22:16:00
5:36 PM,82.4,69.8,66,29.91,10.0,SSE,8.1,-,N/A,,Mostly Cloudy,160,2013-06-21 22:36:00
5:56 PM,82.4,69.8,66,29.92,10.0,South,5.8,-,N/A,,Mostly Cloudy,180,2013-06-21 22:56:00
6:16 PM,82.4,69.8,66,29.93,10.0,South,4.6,-,N/A,,Overcast,170,2013-06-21 23:16:00
6:36 PM,82.4,69.8,66,29.95,10.0,South,5.8,-,N/A,,Overcast,180,2013-06-21 23:36:00
6:56 PM,82.4,71.6,70,29.95,10.0,Calm,Calm,-,N/A,,Mostly Cloudy,0,2013-06-21 23:56:00
7:16 PM,80.6,71.6,74,29.95,10.0,ESE,4.6,-,N/A,,Scattered Clouds,110,2013-06-22 00:16:00
7:36 PM,80.6,71.6,74,29.97,10.0,Calm,Calm,-,N/A,,Mostly Cloudy,0,2013-06-22 00:36:00
7:56 PM,78.8,71.6,78,29.99,10.0,Calm,Calm,-,N/A,,Overcast,0,2013-06-22 00:56:00
8:16 PM,78.8,71.6,78,30.00,10.0,Calm,Calm,-,N/A,,Overcast,0,2013-06-22 01:16:00
8:36 PM,78.8,71.6,78,29.99,10.0,Calm,Calm,-,N/A,,Scattered Clouds,0,2013-06-22 01:36:00
8:56 PM,77.0,71.6,83,29.91,10.0,ESE,15.0,18.4,N/A,,Scattered Clouds,110,2013-06-22 01:56:00
9:16 PM,78.8,69.8,74,29.91,10.0,ESE,10.4,-,N/A,,Clear,110,2013-06-22 02:16:00
9:36 PM,77.0,69.8,78,29.94,10.0,ESE,5.8,-,N/A,,Clear,110,2013-06-22 02:36:00
9:56 PM,77.0,69.8,78,29.97,10.0,NE,3.5,-,N/A,,Clear,40,2013-06-22 02:56:00
10:15 PM,73.4,68.0,83,29.99,10.0,NNE,13.8,24.2,N/A,,Mostly Cloudy,30,2013-06-22 03:15:00
10:36 PM,73.4,66.2,78,29.99,10.0,ENE,11.5,23.0,N/A,,Overcast,60,2013-06-22 03:36:00
10:56 PM,73.4,66.2,78,29.98,10.0,ENE,15.0,-,N/A,,Overcast,60,2013-06-22 03:56:00
11:15 PM,73.4,66.2,78,29.98,10.0,ENE,16.1,21.9,N/A,,Overcast,70,2013-06-22 04:15:00
11:36 PM,73.4,66.2,78,29.94,10.0,ENE,18.4,25.3,N/A,Thunderstorm,Thunderstorm,70,2013-06-22 04:36:00
11:55 PM,73.4,66.2,78,29.93,10.0,East,21.9,26.5,N/A,,Overcast,80,2013-06-22 04:55:00